[[{"header":{"parameterUnit":"m.s-1","parameterCategory":2,"la1":30.2991,"la2":30.254,"lo1":-89.0895,"lo2":-89.0444,"dy":0.0017,"dx":0.0017,"nx":28,"ny":28,"refTime":"2026-01-01T03:00:00:Z","depth":"0","parameterNumber":2,"parameterNumberName":"U-component_of_CURRENTS"},"data":[0,0,0,0,0,0,0,0,0,0,0,0,0,0,0,0,0,0,0,0,0,0,0,0,0,0,0,0,0,0,0,0,0,0,0,0,0,0,0,0,0,0,0,0,0,0,0,0,0,0,0,0,0,0,0,0,0,0,-0.2765,-0.2766,0,-0.2803,-0.2803,-0.2803,-0.2772,-0.2771,-0.277,-0.2769,-0.2739,-0.274,-0.274,0,0,0,0,0,0,0,0,0,0,0,0,0,-0.2674,-0.2675,-0.2765,-0.2766,-0.2767,-0.2803,-0.2803,-0.2803,-0.2772,-0.2771,-0.2769,-0.2768,-0.2739,-0.274,-0.274,0,0,0,0,0,0,0,0,0,0,0,0,0,-0.271,-0.2676,-0.2765,-0.2757,-0.2757,-0.2803,-0.2803,-0.2803,-0.2772,-0.2771,-0.2769,-0.2768,-0.2739,-0.274,-0.274,-0.2773,0,0,-0.2741,-0.2741,0,0,0,0,0,0,0,0,-0.2708,-0.2713,-0.2758,-0.2758,-0.2758,-0.2784,-0.276,-0.2791,-0.2773,-0.2764,-0.2769,-0.2767,-0.2751,-0.275,-0.2758,-0.2772,-0.2771,-0.2741,-0.2741,-0.2741,-0.2741,0,0,0,0,0,0,0,-0.2705,-0.2711,-0.2777,-0.2759,-0.2759,-0.2755,-0.2758,-0.2766,-0.2762,-0.2764,-0.2763,-0.2772,-0.275,-0.2758,-0.2757,-0.277,-0.2741,-0.2741,-0.2741,-0.2741,-0.2797,-0.2798,0,0,0,0,0,0,-0.2708,-0.2709,-0.2776,-0.2779,-0.2732,-0.2758,-0.2761,-0.2775,-0.2764,-0.2762,-0.2773,-0.2771,-0.2758,-0.2756,-0.2755,-0.2781,-0.2741,-0.2741,-0.2742,-0.2796,-0.2798,-0.2799,0,0,0,0,0,0,-0.2706,-0.2714,-0.2774,-0.2746,-0.2754,-0.2762,-0.2777,-0.2776,-0.2777,-0.2772,-0.2768,-0.2774,-0.2757,-0.2755,-0.2765,-0.278,-0.2742,-0.2742,-0.2794,-0.2796,-0.2798,-0.284,0,0,0,0,0,0,-0.2704,-0.2713,-0.2718,-0.2747,-0.2756,-0.2805,-0.2779,-0.2778,-0.2787,-0.2783,-0.2771,-0.2767,-0.2755,-0.2765,-0.2765,-0.2779,-0.2742,-0.2793,-0.2795,-0.2798,-0.2837,-0.2843,-0.2849,0,0,0,0,0,-0.27,-0.2718,-0.2718,-0.2726,-0.2764,-0.2807,-0.2811,-0.2808,-0.2789,-0.28,-0.279,-0.2767,-0.278,-0.2767,-0.2767,-0.2781,-0.2792,-0.2795,-0.2797,-0.2835,-0.2842,-0.2849,0,0,0,0,0,0,-0.2678,-0.2718,-0.2718,-0.2745,-0.2775,-0.2802,-0.2811,-0.2812,-0.2815,-0.2804,-0.2787,-0.2784,-0.28,-0.279,-0.2775,-0.2806,-0.2782,-0.2785,-0.281,-0.2817,-0.2823,-0.2819,-0.2742,0,0,0,0,0,-0.2678,-0.2699,-0.2738,-0.2758,-0.2774,-0.2792,-0.2805,-0.281,-0.2822,-0.282,-0.2814,-0.2808,-0.2817,-0.2814,-0.2821,-0.2839,-0.281,-0.2848,-0.2854,-0.2859,-0.2858,-0.2843,-0.2846,-0.2809,-0.2809,-0.2808,0,0,-0.2672,-0.2698,-0.2707,-0.2754,-0.2771,-0.2808,-0.2794,-0.2823,-0.2846,-0.2818,-0.2835,-0.2832,-0.2828,-0.2849,-0.2854,-0.2837,-0.2852,-0.2863,-0.2867,-0.2863,-0.2846,-0.2849,-0.2852,-0.2811,-0.281,-0.281,0,0,-0.2682,-0.2698,-0.2721,-0.2754,-0.2795,-0.2814,-0.2824,-0.2857,-0.2861,-0.2888,-0.2873,-0.2877,-0.2888,-0.2888,-0.2889,-0.2932,-0.2888,-0.2936,-0.2955,-0.2941,-0.2944,-0.2945,-0.2897,-0.2894,-0.2933,-0.2933,-0.2933,0,-0.267,-0.2708,-0.2734,-0.2774,-0.2798,-0.2819,-0.2854,-0.2876,-0.2905,-0.2911,-0.2896,-0.2914,-0.2907,-0.2929,-0.2942,-0.2943,-0.2916,-0.2927,-0.2947,-0.2948,-0.2949,-0.2899,-0.2895,-0.2935,-0.2935,-0.2935,-0.2934,0,-0.2702,-0.2736,-0.2755,-0.2808,-0.2842,-0.2875,-0.2918,-0.294,-0.2943,-0.2956,-0.2977,-0.2972,-0.2974,-0.2981,-0.2972,-0.2987,-0.2958,-0.2958,-0.2924,-0.2955,-0.29,-0.2896,-0.2939,-0.2938,-0.2937,-0.2936,0,0,-0.2659,-0.2757,-0.276,-0.2791,-0.2861,-0.289,-0.2939,-0.2982,-0.2997,-0.3018,-0.3026,-0.3048,-0.3033,-0.3033,-0.3025,-0.3015,-0.2993,-0.299,-0.2988,-0.2932,-0.2934,-0.2821,-0.2805,-0.2997,-0.2997,-0.2997,-0.2885,0,-0.2668,-0.2742,-0.279,-0.2851,-0.2889,-0.2934,-0.2975,-0.3017,-0.3035,-0.305,-0.3051,-0.3059,-0.3058,-0.305,-0.3045,-0.301,-0.2986,-0.3021,-0.292,-0.2917,-0.2806,-0.2798,-0.2672,-0.2555,-0.2881,-0.288,-0.2879,0,-0.2672,-0.2724,-0.2788,-0.2871,-0.2889,-0.2927,-0.298,-0.3023,-0.3061,-0.3071,-0.3085,-0.3082,-0.3079,-0.3066,-0.302,-0.3042,-0.299,-0.2958,-0.2953,-0.2829,-0.2796,-0.2581,-0.2533,-0.2523,-0.2871,-0.2872,-0.2873,0,-0.2616,-0.2715,-0.2761,-0.2792,-0.2891,-0.2916,-0.296,-0.3016,-0.3043,-0.3076,-0.3081,-0.3089,-0.307,-0.3038,-0.2972,-0.2995,-0.2894,-0.2915,-0.2763,-0.2753,-0.2615,-0.2593,-0.2535,-0.287,-0.287,-0.2871,-0.2871,0,-0.26,-0.263,-0.2736,-0.2759,-0.2797,-0.2883,-0.2917,-0.2962,-0.3017,-0.3032,-0.3077,-0.3068,-0.3064,-0.301,-0.296,-0.2826,-0.2879,-0.275,-0.2717,-0.2624,-0.2605,-0.2565,-0.2614,-0.2866,-0.2867,-0.2868,-0.2869,0,-0.2519,-0.2598,-0.2647,-0.2747,-0.2772,-0.2793,-0.2883,-0.2905,-0.2977,-0.2993,-0.3002,-0.3035,-0.2957,-0.2918,-0.2836,-0.2783,-0.2633,-0.2623,-0.2493,-0.2446,-0.23,-0.2356,-0.2279,-0.2214,-0.244,-0.2437,-0.2434,0,-0.2483,-0.2503,-0.2602,-0.2617,-0.2655,-0.271,-0.274,-0.2851,-0.2882,-0.2956,-0.2944,-0.2907,-0.2821,-0.266,-0.2552,-0.241,-0.2466,-0.225,-0.2279,-0.2254,-0.2295,-0.2362,-0.232,-0.2107,-0.2102,-0.2097,-0.2094,0,-0.2386,-0.2422,-0.2455,-0.2502,-0.2536,-0.2585,-0.2645,-0.2669,-0.2787,-0.279,-0.2765,-0.2702,-0.2561,-0.2353,-0.2201,-0.2123,-0.2207,-0.2154,-0.2172,-0.2055,-0.2084,-0.2016,-0.2211,-0.2055,-0.2059,-0.2062,-0.2064,-0.2065,-0.2281,-0.2279,-0.2328,-0.2356,-0.2401,-0.2431,-0.2391,-0.2462,-0.2467,-0.2404,-0.2504,-0.231,-0.2228,-0.1971,-0.1896,-0.1763,-0.1879,-0.1741,-0.1815,-0.1888,-0.1818,-0.1906,-0.1695,-0.1696,-0.1698,-0.1699,-0.17,0,-0.214,-0.2159,-0.2179,-0.2215,-0.2205,-0.2276,-0.2289,-0.2195,-0.2105,-0.2059,-0.1972,-0.1822,-0.167,-0.1619,-0.1532,-0.1466,-0.1467,-0.1468,-0.1556,-0.153,-0.1616,-0.1592,-0.1297,-0.1297,-0.1297,-0.1297,-0.1297,-0.1297,-0.2065,-0.2033,-0.2057,-0.2005,-0.2015,-0.188,-0.1828,-0.1708,-0.16,-0.1376,-0.1232,-0.1157,-0.1287,-0.1512,-0.1468,-0.1393,-0.141,-0.136,-0.1426,-0.1523,-0.1556,-0.1588,-0.1575,-0.1281,-0.1281,-0.1262,-0.1262,-0.1262]},{"header":{"parameterUnit":"m.s-1","parameterCategory":2,"la1":30.2991,"la2":30.254,"lo1":-89.0895,"lo2":-89.0444,"dy":0.0017,"dx":0.0017,"nx":28,"ny":28,"refTime":"2026-01-01T03:00:00:Z","depth":"0","parameterNumber":3,"parameterNumberName":"V-component_of_CURRENTS"},"data":[0,0,0,0,0,0,0,0,0,0,0,0,0,0,0,0,0,0,0,0,0,0,0,0,0,0,0,0,0,0,0,0,0,0,0,0,0,0,0,0,0,0,0,0,0,0,0,0,0,0,0,0,0,0,0,0,0,0,-0.0162,-0.0161,0,-0.0074,-0.0073,-0.0072,-0.0004,-0.0004,-0.0004,-0.0003,0.0144,0.0148,0.0151,0,0,0,0,0,0,0,0,0,0,0,0,0,-0.0214,-0.0213,-0.0162,-0.0161,-0.016,-0.0074,-0.0073,-0.0071,-0.0004,-0.0004,-0.0003,-0.0003,0.0143,0.0147,0.0152,0,0,0,0,0,0,0,0,0,0,0,0,0,-0.0163,-0.0213,-0.0162,-0.0118,-0.0113,-0.0074,-0.0073,-0.0071,-0.0005,-0.0004,-0.0003,-0.0003,0.0142,0.0147,0.0152,0.0173,0,0,0.0169,0.0171,0,0,0,0,0,0,0,0,-0.0166,-0.0161,-0.0125,-0.0121,-0.0116,-0.0051,-0.0037,0.0013,-0.0005,-0.0044,-0.0003,-0.0002,0.0083,0.0093,0.011,0.018,0.0186,0.0169,0.0172,0.0175,0.0176,0,0,0,0,0,0,0,-0.017,-0.0164,-0.0125,-0.0125,-0.0119,-0.0083,-0.0075,-0.0027,0.0018,-0.004,-0.0036,-0.003,0.0086,0.0105,0.0114,0.0188,0.0169,0.0174,0.0177,0.0179,0.03,0.0301,0,0,0,0,0,0,-0.0189,-0.0168,-0.0128,-0.0122,-0.0142,-0.0083,-0.0074,-0.0071,0.0016,0.0029,-0.003,-0.0027,0.0096,0.0108,0.012,0.0151,0.0174,0.0179,0.0183,0.03,0.03,0.0301,0,0,0,0,0,0,-0.019,-0.0186,-0.0131,-0.0145,-0.0135,-0.0083,-0.008,-0.007,-0.0051,0.0023,0.0037,-0.0022,0.0097,0.0112,0.016,0.0157,0.0182,0.0187,0.03,0.03,0.0301,0.0213,0,0,0,0,0,0,-0.0192,-0.0187,-0.0194,-0.0146,-0.0135,-0.0119,-0.008,-0.0068,-0.0049,-0.0044,0.0034,0.0049,0.0098,0.0151,0.0165,0.0165,0.0191,0.03,0.03,0.03,0.0215,0.021,0.0205,0,0,0,0,0,-0.0194,-0.0211,-0.0195,-0.019,-0.0145,-0.012,-0.0111,-0.007,-0.005,-0.0049,0.0007,0.0046,0.0162,0.0155,0.0171,0.0173,0.03,0.03,0.03,0.0218,0.0211,0.0205,0,0,0,0,0,0,-0.0237,-0.0204,-0.0185,-0.0191,-0.0162,-0.011,-0.0107,-0.0077,-0.0033,-0.0026,0.0046,0.0064,0.0105,0.0151,0.0142,0.0209,0.0238,0.0241,0.017,0.0164,0.0158,0.0142,0.0195,0,0,0,0,0,-0.0251,-0.0253,-0.0213,-0.0217,-0.0206,-0.0157,-0.0142,-0.0115,-0.007,-0.005,0.0005,0.0066,0.0118,0.0148,0.0199,0.0235,0.0293,0.0248,0.0242,0.0237,0.0236,0.0323,0.0325,0.0301,0.0301,0.0301,0,0,-0.0268,-0.0251,-0.0251,-0.0226,-0.0199,-0.0194,-0.0146,-0.0131,-0.012,-0.004,-0.001,0.0047,0.0122,0.0161,0.0184,0.02,0.0274,0.0237,0.0232,0.0234,0.0323,0.0326,0.0328,0.0301,0.0301,0.0301,0,0,-0.0311,-0.0289,-0.0307,-0.0289,-0.026,-0.0227,-0.0227,-0.0179,-0.015,-0.0116,-0.0054,0.0,0.0074,0.0131,0.017,0.0167,0.024,0.0181,0.0145,0.0229,0.0231,0.0235,0.0303,0.0313,0.0181,0.0181,0.0181,0,-0.0335,-0.0349,-0.0308,-0.032,-0.0311,-0.0248,-0.0262,-0.0224,-0.0166,-0.0137,-0.0119,0.0004,0.0062,0.0128,0.0123,0.0155,0.0209,0.0159,0.0221,0.0225,0.023,0.03,0.0312,0.0176,0.0177,0.0177,0.0178,0,-0.0389,-0.0398,-0.0407,-0.0398,-0.0381,-0.0384,-0.033,-0.0304,-0.026,-0.0211,-0.0143,-0.006,0.0015,0.0041,0.008,0.0141,0.0169,0.02,0.0233,0.0227,0.0301,0.0315,0.017,0.0172,0.0173,0.0174,0,0,-0.0447,-0.0448,-0.045,-0.046,-0.0424,-0.0417,-0.0394,-0.0349,-0.0323,-0.0255,-0.0211,-0.0122,-0.0067,-0.0021,0.0044,0.0114,0.0186,0.0159,0.0166,0.0218,0.0364,0.041,0.0431,0.0228,0.023,0.0231,0.0398,0,-0.0502,-0.0553,-0.0524,-0.0554,-0.0574,-0.0507,-0.049,-0.0434,-0.0368,-0.0308,-0.0204,-0.0139,-0.0092,-0.0055,0.002,0.0148,0.0221,0.0138,0.037,0.0377,0.0412,0.0448,0.0532,0.069,0.0412,0.0415,0.0416,0,-0.0565,-0.059,-0.0641,-0.0636,-0.0635,-0.0634,-0.0582,-0.0555,-0.0446,-0.0391,-0.0301,-0.0212,-0.0102,-0.0061,0.015,0.0094,0.0215,0.0316,0.0326,0.0411,0.045,0.0655,0.0728,0.093,0.0439,0.0437,0.0436,0,-0.064,-0.0665,-0.0711,-0.0713,-0.0697,-0.0693,-0.067,-0.0583,-0.0548,-0.0437,-0.0392,-0.0247,-0.0159,-0.0003,0.0197,0.0178,0.044,0.0447,0.0607,0.0612,0.0751,0.0764,0.1043,0.0605,0.0605,0.0604,0.0604,0,-0.0716,-0.0748,-0.0752,-0.0781,-0.0816,-0.0768,-0.0767,-0.0715,-0.0625,-0.0566,-0.0444,-0.0352,-0.0137,0.0039,0.0198,0.0452,0.0449,0.0615,0.0667,0.0721,0.0729,0.0966,0.1012,0.061,0.0609,0.0608,0.0607,0,-0.0795,-0.0799,-0.0852,-0.0858,-0.0861,-0.0884,-0.0848,-0.0832,-0.0738,-0.0655,-0.0621,-0.041,-0.017,0.0049,0.0339,0.0471,0.0827,0.0785,0.0823,0.0877,0.1182,0.1217,0.1498,0.1626,0.098,0.0982,0.0984,0,-0.0841,-0.0882,-0.0925,-0.0958,-0.0966,-0.0984,-0.0989,-0.0908,-0.0871,-0.0673,-0.0632,-0.038,-0.0162,0.026,0.0541,0.0843,0.0974,0.1077,0.1056,0.1231,0.131,0.1318,0.1405,0.121,0.1213,0.1216,0.1219,0,-0.0925,-0.0938,-0.0981,-0.1061,-0.109,-0.1103,-0.1091,-0.1068,-0.0933,-0.0799,-0.0566,-0.0366,0.004,0.0451,0.0818,0.0994,0.1228,0.1145,0.1347,0.1531,0.1542,0.168,0.1047,0.1245,0.1243,0.1241,0.1239,0.1238,-0.0972,-0.1026,-0.1083,-0.115,-0.1185,-0.1182,-0.1119,-0.106,-0.0925,-0.061,-0.0492,-0.0065,0.0397,0.0946,0.1128,0.1558,0.1467,0.17,0.1733,0.1729,0.1846,0.125,0.1485,0.1484,0.1483,0.1482,0.1481,0,-0.1025,-0.1082,-0.1163,-0.1208,-0.123,-0.1222,-0.1143,-0.0995,-0.0766,-0.0462,-0.0154,0.0489,0.0996,0.1406,0.1929,0.2152,0.2189,0.2261,0.2327,0.2394,0.1919,0.1924,0.2241,0.2241,0.2241,0.224,0.224,0.224,-0.1051,-0.1141,-0.1186,-0.1229,-0.1226,-0.1094,-0.0993,-0.0761,-0.0495,0.003,0.0498,0.0859,0.1374,0.2134,0.2656,0.2697,0.2901,0.2854,0.2949,0.2649,0.26,0.2553,0.2576,0.3024,0.3025,0.3456,0.346,0.3463]}],[{"header":{"parameterUnit":"m.s-1","parameterCategory":2,"la1":30.2991,"la2":30.254,"lo1":-89.0895,"lo2":-89.0444,"dy":0.0017,"dx":0.0017,"nx":28,"ny":28,"refTime":"2026-01-01T03:00:00:Z","depth":"2","parameterNumber":2,"parameterNumberName":"U-component_of_CURRENTS"},"data":[0,0,0,0,0,0,0,0,0,0,0,0,0,0,0,0,0,0,0,0,0,0,0,0,0,0,0,0,0,0,0,0,0,0,0,0,0,0,0,0,0,0,0,0,0,0,0,0,0,0,0,0,0,0,0,0,0,0,-0.2715,-0.2716,0,-0.2753,-0.2753,-0.2754,-0.2726,-0.2725,-0.2724,-0.2723,-0.2699,-0.2699,-0.2699,0,0,0,0,0,0,0,0,0,0,0,0,0,-0.2625,-0.2626,-0.2715,-0.2716,-0.2716,-0.2753,-0.2753,-0.2754,-0.2726,-0.2725,-0.2724,-0.2723,-0.2699,-0.2699,-0.27,0,0,0,0,0,0,0,0,0,0,0,0,0,-0.2661,-0.2627,-0.2715,-0.2709,-0.2709,-0.2753,-0.2753,-0.2754,-0.2727,-0.2725,-0.2724,-0.2722,-0.2699,-0.2699,-0.27,-0.2731,0,0,-0.2701,-0.2701,0,0,0,0,0,0,0,0,-0.2659,-0.2664,-0.2709,-0.271,-0.271,-0.2736,-0.2713,-0.2744,-0.2727,-0.2717,-0.2723,-0.2722,-0.2708,-0.2708,-0.2715,-0.2729,-0.2728,-0.2701,-0.2701,-0.2701,-0.2701,0,0,0,0,0,0,0,-0.2656,-0.2662,-0.2727,-0.271,-0.2711,-0.2707,-0.2711,-0.2719,-0.2717,-0.2718,-0.2717,-0.2726,-0.2708,-0.2715,-0.2714,-0.2728,-0.2701,-0.2701,-0.2701,-0.2701,-0.2758,-0.2759,0,0,0,0,0,0,-0.2659,-0.266,-0.2726,-0.2729,-0.2684,-0.271,-0.2714,-0.2727,-0.2718,-0.2717,-0.2727,-0.2725,-0.2715,-0.2714,-0.2713,-0.2741,-0.2701,-0.2701,-0.2702,-0.2757,-0.2758,-0.276,0,0,0,0,0,0,-0.2657,-0.2665,-0.2725,-0.2697,-0.2705,-0.2714,-0.2728,-0.2728,-0.2731,-0.2727,-0.2723,-0.2729,-0.2714,-0.2713,-0.2724,-0.274,-0.2702,-0.2702,-0.2755,-0.2757,-0.2759,-0.2802,0,0,0,0,0,0,-0.2654,-0.2664,-0.2669,-0.2697,-0.2706,-0.2755,-0.273,-0.273,-0.2741,-0.2737,-0.2728,-0.2724,-0.2713,-0.2724,-0.2725,-0.274,-0.2702,-0.2754,-0.2756,-0.2758,-0.2799,-0.2805,-0.281,0,0,0,0,0,-0.2651,-0.2669,-0.2669,-0.2677,-0.2715,-0.2756,-0.2761,-0.276,-0.2742,-0.2754,-0.2745,-0.2724,-0.2739,-0.2726,-0.2726,-0.2741,-0.2753,-0.2755,-0.2758,-0.2796,-0.2803,-0.281,0,0,0,0,0,0,-0.263,-0.2669,-0.267,-0.2697,-0.2726,-0.2753,-0.2762,-0.2764,-0.2768,-0.2759,-0.2743,-0.2741,-0.2758,-0.2749,-0.2734,-0.2766,-0.2742,-0.2745,-0.2771,-0.2778,-0.2783,-0.2781,-0.2703,0,0,0,0,0,-0.2631,-0.2651,-0.269,-0.2709,-0.2725,-0.2743,-0.2756,-0.2763,-0.2775,-0.2775,-0.277,-0.2766,-0.2775,-0.2773,-0.2781,-0.2799,-0.2771,-0.2809,-0.2815,-0.282,-0.2819,-0.2805,-0.2809,-0.2769,-0.2769,-0.2769,0,0,-0.2625,-0.2651,-0.266,-0.2706,-0.2723,-0.2759,-0.2746,-0.2776,-0.2799,-0.2773,-0.2791,-0.2789,-0.2786,-0.2808,-0.2814,-0.2797,-0.2814,-0.2823,-0.2827,-0.2824,-0.2808,-0.2812,-0.2815,-0.2771,-0.2771,-0.2771,0,0,-0.2636,-0.2652,-0.2675,-0.2707,-0.2747,-0.2767,-0.2777,-0.281,-0.2815,-0.2843,-0.283,-0.2835,-0.2848,-0.2848,-0.2849,-0.2892,-0.285,-0.2896,-0.2917,-0.2903,-0.2906,-0.2908,-0.2862,-0.2859,-0.2893,-0.2893,-0.2893,0,-0.2625,-0.2663,-0.2688,-0.2726,-0.2751,-0.2772,-0.2806,-0.2829,-0.2859,-0.2865,-0.2852,-0.2873,-0.2866,-0.2889,-0.2902,-0.2903,-0.2878,-0.2889,-0.2909,-0.291,-0.2911,-0.2864,-0.2861,-0.2896,-0.2896,-0.2895,-0.2895,0,-0.2657,-0.269,-0.2709,-0.2761,-0.2794,-0.2828,-0.2869,-0.2893,-0.2897,-0.2911,-0.2934,-0.2931,-0.2935,-0.2941,-0.2933,-0.2949,-0.2921,-0.292,-0.2887,-0.2918,-0.2866,-0.2862,-0.2899,-0.2898,-0.2898,-0.2897,0,0,-0.2617,-0.2711,-0.2715,-0.2745,-0.2813,-0.2842,-0.2891,-0.2934,-0.295,-0.2973,-0.2983,-0.3006,-0.2993,-0.2994,-0.2987,-0.2977,-0.2958,-0.2953,-0.2952,-0.2899,-0.2903,-0.2792,-0.2776,-0.2961,-0.2961,-0.2961,-0.2857,0,-0.2626,-0.2698,-0.2745,-0.2804,-0.2842,-0.2886,-0.2927,-0.2969,-0.2989,-0.3005,-0.3008,-0.3018,-0.3018,-0.3012,-0.3008,-0.2974,-0.2952,-0.2985,-0.2888,-0.2885,-0.2775,-0.2769,-0.2579,-0.2463,-0.2852,-0.2852,-0.2851,0,-0.2631,-0.2681,-0.2744,-0.2825,-0.2843,-0.288,-0.2934,-0.2976,-0.3016,-0.3027,-0.3043,-0.3042,-0.3041,-0.3028,-0.2986,-0.3006,-0.2958,-0.2927,-0.2922,-0.28,-0.2766,-0.2499,-0.244,-0.2843,-0.2844,-0.2845,-0.2845,0,-0.2577,-0.2674,-0.2719,-0.2749,-0.2846,-0.2871,-0.2915,-0.2971,-0.2998,-0.3033,-0.3039,-0.305,-0.3034,-0.3003,-0.2941,-0.2963,-0.2868,-0.2887,-0.2739,-0.273,-0.2538,-0.2511,-0.2846,-0.2846,-0.2846,-0.2846,-0.2847,0,-0.2562,-0.2593,-0.2696,-0.2719,-0.2757,-0.284,-0.2876,-0.292,-0.2975,-0.2991,-0.3037,-0.303,-0.3029,-0.2978,-0.2931,-0.2802,-0.2854,-0.2728,-0.2696,-0.2546,-0.2522,-0.2838,-0.2838,-0.2842,-0.2843,-0.2844,-0.2845,0,-0.2486,-0.2562,-0.261,-0.2708,-0.2733,-0.2754,-0.2843,-0.2865,-0.2937,-0.2954,-0.2963,-0.3,-0.2926,-0.289,-0.2813,-0.2762,-0.2668,-0.2608,-0.2414,-0.2361,-0.2543,-0.2547,-0.2439,-0.2434,-0.243,-0.2427,-0.2424,0,-0.2451,-0.2471,-0.2568,-0.2583,-0.262,-0.2675,-0.2704,-0.2813,-0.2843,-0.2918,-0.2907,-0.2875,-0.2793,-0.264,-0.2527,-0.2388,-0.2515,-0.2176,-0.2192,-0.2522,-0.2501,-0.2512,-0.2522,-0.1947,-0.194,-0.1935,-0.1931,0,-0.2358,-0.2394,-0.2427,-0.2471,-0.2504,-0.2553,-0.2611,-0.2633,-0.2749,-0.2756,-0.2736,-0.2677,-0.2533,-0.2293,-0.2142,-0.206,-0.2188,-0.2062,-0.2438,-0.2089,-0.2052,-0.2034,-0.2061,-0.1883,-0.1888,-0.1891,-0.1894,-0.1896,-0.2258,-0.2256,-0.2303,-0.2329,-0.2373,-0.2402,-0.2369,-0.2431,-0.2438,-0.2401,-0.2488,-0.2301,-0.2248,-0.1868,-0.1755,-0.1669,-0.1827,-0.1783,-0.1801,-0.1826,-0.1797,-0.1756,-0.1524,-0.1526,-0.1529,-0.1531,-0.1532,0,-0.2117,-0.2139,-0.2157,-0.219,-0.2176,-0.2252,-0.2271,-0.218,-0.2094,-0.2097,-0.2025,-0.1741,-0.1567,-0.1507,-0.1283,-0.1257,-0.1274,-0.1233,-0.1265,-0.1311,-0.1352,-0.1304,-0.0898,-0.0896,-0.0894,-0.0893,0,0,-0.2044,-0.2008,-0.2028,-0.1974,-0.199,-0.19,-0.1858,-0.1731,-0.1655,-0.1476,-0.1367,-0.1452,-0.1433,-0.1152,-0.1106,-0.0959,-0.1127,-0.091,-0.1416,-0.1497,-0.1536,-0.1659,-0.1634,0,0,0,0,0]},{"header":{"parameterUnit":"m.s-1","parameterCategory":2,"la1":30.2991,"la2":30.254,"lo1":-89.0895,"lo2":-89.0444,"dy":0.0017,"dx":0.0017,"nx":28,"ny":28,"refTime":"2026-01-01T03:00:00:Z","depth":"2","parameterNumber":3,"parameterNumberName":"V-component_of_CURRENTS"},"data":[0,0,0,0,0,0,0,0,0,0,0,0,0,0,0,0,0,0,0,0,0,0,0,0,0,0,0,0,0,0,0,0,0,0,0,0,0,0,0,0,0,0,0,0,0,0,0,0,0,0,0,0,0,0,0,0,0,0,-0.0234,-0.0233,0,-0.0148,-0.0147,-0.0146,-0.008,-0.0079,-0.0079,-0.0078,0.0065,0.0069,0.0072,0,0,0,0,0,0,0,0,0,0,0,0,0,-0.0284,-0.0284,-0.0234,-0.0233,-0.0232,-0.0149,-0.0147,-0.0146,-0.008,-0.0079,-0.0079,-0.0078,0.0064,0.0068,0.0072,0,0,0,0,0,0,0,0,0,0,0,0,0,-0.0235,-0.0284,-0.0234,-0.0191,-0.0186,-0.0149,-0.0147,-0.0145,-0.008,-0.0079,-0.0079,-0.0078,0.0063,0.0068,0.0073,0.0091,0,0,0.0088,0.0091,0,0,0,0,0,0,0,0,-0.0238,-0.0233,-0.0198,-0.0193,-0.0188,-0.0126,-0.0112,-0.0064,-0.008,-0.0118,-0.0078,-0.0078,0.0005,0.0015,0.0032,0.0098,0.0104,0.0089,0.0092,0.0094,0.0096,0,0,0,0,0,0,0,-0.0242,-0.0236,-0.0198,-0.0197,-0.0191,-0.0157,-0.0149,-0.0103,-0.0059,-0.0115,-0.011,-0.0104,0.0008,0.0026,0.0036,0.0106,0.0089,0.0093,0.0097,0.0099,0.0214,0.0214,0,0,0,0,0,0,-0.026,-0.024,-0.02,-0.0195,-0.0214,-0.0157,-0.0148,-0.0145,-0.006,-0.0048,-0.0105,-0.0101,0.0017,0.003,0.0041,0.0072,0.0094,0.0099,0.0102,0.0214,0.0214,0.0214,0,0,0,0,0,0,-0.0262,-0.0258,-0.0204,-0.0217,-0.0208,-0.0157,-0.0153,-0.0144,-0.0124,-0.0054,-0.004,-0.0096,0.0018,0.0034,0.0079,0.0078,0.0101,0.0106,0.0214,0.0214,0.0214,0.0132,0,0,0,0,0,0,-0.0263,-0.0259,-0.0264,-0.0219,-0.0208,-0.0192,-0.0154,-0.0142,-0.0123,-0.0117,-0.0042,-0.0028,0.002,0.0071,0.0084,0.0085,0.011,0.0214,0.0214,0.0214,0.0134,0.0129,0.0124,0,0,0,0,0,-0.0266,-0.0281,-0.0265,-0.026,-0.0217,-0.0193,-0.0185,-0.0144,-0.0124,-0.0123,-0.0068,-0.003,0.0081,0.0075,0.0091,0.0093,0.0214,0.0214,0.0214,0.0137,0.013,0.0124,0,0,0,0,0,0,-0.0307,-0.0275,-0.0256,-0.0261,-0.0233,-0.0183,-0.018,-0.0151,-0.0108,-0.01,-0.0031,-0.0013,0.0027,0.0071,0.0062,0.0127,0.0155,0.0158,0.009,0.0084,0.0079,0.0065,0.0114,0,0,0,0,0,-0.032,-0.0322,-0.0283,-0.0287,-0.0277,-0.0229,-0.0214,-0.0187,-0.0143,-0.0124,-0.0071,-0.0012,0.0038,0.0068,0.0117,0.0151,0.0207,0.0164,0.0159,0.0154,0.0153,0.0236,0.0238,0.0215,0.0215,0.0215,0,0,-0.0337,-0.032,-0.032,-0.0296,-0.0269,-0.0264,-0.0218,-0.0203,-0.0192,-0.0115,-0.0084,-0.003,0.0043,0.0081,0.0103,0.0118,0.0189,0.0154,0.0149,0.0152,0.0237,0.0239,0.0241,0.0215,0.0215,0.0215,0,0,-0.0378,-0.0357,-0.0374,-0.0356,-0.0327,-0.0295,-0.0295,-0.0249,-0.0221,-0.0188,-0.0127,-0.0074,-0.0004,0.0052,0.0089,0.0086,0.0156,0.01,0.0066,0.0146,0.0149,0.0152,0.0217,0.0226,0.01,0.01,0.01,0,-0.0401,-0.0414,-0.0375,-0.0385,-0.0377,-0.0315,-0.0328,-0.0292,-0.0235,-0.0208,-0.019,-0.0071,-0.0015,0.0049,0.0045,0.0075,0.0126,0.008,0.0139,0.0143,0.0148,0.0214,0.0226,0.0096,0.0096,0.0097,0.0097,0,-0.0453,-0.0461,-0.047,-0.046,-0.0444,-0.0446,-0.0394,-0.0368,-0.0326,-0.0279,-0.0213,-0.0132,-0.0059,-0.0034,0.0004,0.0063,0.009,0.0119,0.015,0.0145,0.0215,0.0229,0.009,0.0092,0.0093,0.0094,0,0,-0.0509,-0.0509,-0.0511,-0.0521,-0.0485,-0.0478,-0.0455,-0.0412,-0.0387,-0.0321,-0.0279,-0.0191,-0.0138,-0.0093,-0.003,0.0038,0.0108,0.0081,0.0088,0.0138,0.0277,0.0319,0.0339,0.0147,0.0149,0.015,0.0309,0,-0.0562,-0.061,-0.0582,-0.061,-0.0629,-0.0565,-0.0548,-0.0494,-0.0431,-0.0373,-0.0272,-0.021,-0.0162,-0.0126,-0.0053,0.007,0.0141,0.0062,0.0282,0.0289,0.0321,0.0356,0.0284,0.0422,0.0323,0.0325,0.0327,0,-0.0622,-0.0646,-0.0695,-0.069,-0.0689,-0.0688,-0.0638,-0.0612,-0.0507,-0.0455,-0.0367,-0.0281,-0.0174,-0.0134,0.0071,0.0017,0.0135,0.0232,0.0241,0.0321,0.0357,0.0416,0.0451,0.0351,0.0349,0.0347,0.0346,0,-0.0695,-0.0719,-0.0762,-0.0764,-0.0748,-0.0746,-0.0723,-0.064,-0.0607,-0.05,-0.0457,-0.0317,-0.0233,-0.008,0.0113,0.0096,0.0348,0.0355,0.0508,0.0512,0.0516,0.0518,0.0508,0.0508,0.0508,0.0507,0.0507,0,-0.0769,-0.0799,-0.0803,-0.083,-0.0866,-0.0819,-0.0818,-0.0769,-0.0683,-0.0629,-0.0508,-0.0422,-0.0212,-0.0043,0.0113,0.0357,0.0355,0.0516,0.0565,0.0485,0.0481,0.047,0.0463,0.0513,0.0512,0.0511,0.051,0,-0.0845,-0.0848,-0.09,-0.0906,-0.0908,-0.0932,-0.0898,-0.0885,-0.0794,-0.0718,-0.0685,-0.0482,-0.0251,-0.0037,0.0244,0.0372,0.0587,0.0676,0.0561,0.0595,0.0693,0.068,0.0855,0.0858,0.0861,0.0863,0.0865,0,-0.089,-0.0929,-0.0971,-0.1005,-0.1012,-0.1031,-0.1038,-0.0959,-0.0925,-0.0738,-0.0701,-0.0459,-0.0254,0.0155,0.04,0.0687,0.0693,0.0794,0.0755,0.0703,0.0734,0.0716,0.0701,0.0723,0.0724,0.0724,0.0725,0,-0.0972,-0.0985,-0.1027,-0.1108,-0.1137,-0.1155,-0.1145,-0.1127,-0.0998,-0.088,-0.0662,-0.0473,-0.0097,0.0215,0.0563,0.0713,0.0733,0.0814,0.0817,0.0643,0.0591,0.0616,0.0603,0.0728,0.0728,0.0728,0.0727,0.0727,-0.102,-0.1073,-0.1131,-0.1199,-0.1237,-0.1246,-0.1238,-0.1158,-0.1046,-0.0868,-0.0656,-0.0338,-0.0081,0.0425,0.0644,0.0828,0.0839,0.0879,0.0872,0.0866,0.0819,0.0774,0.0937,0.0937,0.0938,0.0939,0.0939,0,-0.1074,-0.1132,-0.1214,-0.127,-0.1312,-0.1296,-0.1283,-0.1237,-0.1063,-0.0878,-0.0627,-0.0223,0.0132,0.04,0.0692,0.0883,0.0834,0.0908,0.0795,0.079,0.0787,0.073,0.0828,0.0828,0.0828,0.0829,0,0,-0.1102,-0.1195,-0.1241,-0.132,-0.1331,-0.1378,-0.135,-0.1233,-0.1104,-0.0831,-0.0576,-0.0303,0.0115,0.0307,0.0521,0.0674,0.0668,0.0678,0.0742,0.0571,0.0565,0.0745,0.0652,0,0,0,0,0]}],[{"header":{"parameterUnit":"m.s-1","parameterCategory":2,"la1":30.2991,"la2":30.254,"lo1":-89.0895,"lo2":-89.0444,"dy":0.0017,"dx":0.0017,"nx":28,"ny":28,"refTime":"2026-01-01T03:00:00:Z","depth":"4","parameterNumber":2,"parameterNumberName":"U-component_of_CURRENTS"},"data":[0,0,0,0,0,0,0,0,0,0,0,0,0,0,0,0,0,0,0,0,0,0,0,0,0,0,0,0,0,0,0,0,0,0,0,0,0,0,0,0,0,0,0,0,0,0,0,0,0,0,0,0,0,0,0,0,0,0,-0.1922,-0.1923,0,-0.2009,-0.201,-0.2011,-0.2058,-0.2059,-0.2059,-0.2059,-0.2131,-0.2133,-0.2135,0,0,0,0,0,0,0,0,0,0,0,0,0,-0.1796,-0.1797,-0.1922,-0.1923,-0.1925,-0.2009,-0.201,-0.2011,-0.2058,-0.2059,-0.2059,-0.2059,-0.2131,-0.2133,-0.2135,0,0,0,0,0,0,0,0,0,0,0,0,0,-0.1861,-0.1798,-0.1922,-0.196,-0.1964,-0.2009,-0.201,-0.2012,-0.2058,-0.2059,-0.2059,-0.206,-0.213,-0.2133,-0.2135,-0.2141,0,0,-0.2143,-0.2144,0,0,0,0,0,0,0,0,-0.1858,-0.1866,-0.1953,-0.1957,-0.1962,-0.2025,-0.1992,-0.2055,-0.2058,-0.202,-0.2059,-0.206,-0.2096,-0.2101,-0.2114,-0.2145,-0.2148,-0.2143,-0.2144,-0.2145,-0.2146,0,0,0,0,0,0,0,-0.1853,-0.1862,-0.1955,-0.1954,-0.196,-0.1972,-0.1982,-0.2004,-0.2053,-0.2024,-0.2028,-0.2041,-0.2098,-0.2111,-0.2116,-0.2149,-0.2143,-0.2145,-0.2147,-0.2147,-0.2271,-0.2272,0,0,0,0,0,0,-0.1846,-0.1858,-0.1952,-0.1958,-0.1912,-0.1974,-0.1985,-0.2003,-0.2053,-0.2062,-0.204,-0.2043,-0.2107,-0.2113,-0.2118,-0.2206,-0.2145,-0.2148,-0.2149,-0.2269,-0.2271,-0.2273,0,0,0,0,0,0,-0.1843,-0.1854,-0.1948,-0.1911,-0.1924,-0.1976,-0.1996,-0.2005,-0.205,-0.2066,-0.2074,-0.208,-0.2107,-0.2115,-0.2171,-0.2206,-0.2149,-0.2151,-0.2267,-0.2269,-0.2272,-0.2331,0,0,0,0,0,0,-0.1839,-0.1852,-0.1878,-0.1911,-0.1926,-0.1999,-0.1996,-0.2006,-0.2056,-0.2061,-0.2102,-0.2108,-0.2108,-0.2168,-0.2174,-0.2208,-0.2153,-0.2264,-0.2268,-0.2271,-0.2327,-0.2336,-0.2343,0,0,0,0,0,-0.1834,-0.1864,-0.1878,-0.1891,-0.1955,-0.2,-0.201,-0.2046,-0.2058,-0.2087,-0.2117,-0.2108,-0.2193,-0.2171,-0.2178,-0.2214,-0.2263,-0.2267,-0.2271,-0.2324,-0.2334,-0.2343,0,0,0,0,0,0,-0.1824,-0.1872,-0.1889,-0.1933,-0.1975,-0.201,-0.2044,-0.2065,-0.2112,-0.2125,-0.2134,-0.2142,-0.2204,-0.2203,-0.2179,-0.226,-0.2225,-0.2231,-0.2263,-0.2273,-0.2281,-0.2273,-0.2155,0,0,0,0,0,-0.1832,-0.1869,-0.1912,-0.1951,-0.1974,-0.2015,-0.2044,-0.2071,-0.2109,-0.2131,-0.2161,-0.2191,-0.2221,-0.2243,-0.2269,-0.2315,-0.2286,-0.2342,-0.235,-0.2357,-0.2356,-0.2348,-0.2355,-0.2286,-0.2286,-0.2286,0,0,-0.1839,-0.1871,-0.1894,-0.1952,-0.1987,-0.2031,-0.2034,-0.209,-0.2134,-0.2131,-0.2206,-0.2226,-0.2241,-0.2294,-0.2321,-0.2301,-0.2361,-0.2362,-0.2367,-0.2363,-0.2353,-0.2359,-0.2365,-0.2289,-0.2288,-0.2288,0,0,-0.1861,-0.1902,-0.1937,-0.1977,-0.2039,-0.2065,-0.2089,-0.2146,-0.2181,-0.2247,-0.2256,-0.2296,-0.235,-0.2363,-0.2374,-0.2442,-0.2406,-0.2458,-0.2492,-0.2485,-0.249,-0.2494,-0.2457,-0.2457,-0.2459,-0.2459,-0.2459,0,-0.1869,-0.1918,-0.1956,-0.2,-0.2039,-0.2084,-0.213,-0.2174,-0.2245,-0.2273,-0.2283,-0.2361,-0.2378,-0.2424,-0.2451,-0.2459,-0.2439,-0.2452,-0.2493,-0.2497,-0.2499,-0.2461,-0.246,-0.2463,-0.2462,-0.2462,-0.2462,0,-0.1906,-0.1961,-0.1988,-0.2057,-0.2103,-0.2155,-0.2213,-0.2268,-0.2313,-0.2346,-0.2418,-0.2443,-0.248,-0.2499,-0.2499,-0.2538,-0.2511,-0.2504,-0.2463,-0.251,-0.2466,-0.2464,-0.2468,-0.2466,-0.2465,-0.2465,0,0,-0.1876,-0.1991,-0.2004,-0.2048,-0.214,-0.2177,-0.2257,-0.2326,-0.2369,-0.2439,-0.2482,-0.2546,-0.2555,-0.2567,-0.2575,-0.2577,-0.2582,-0.2557,-0.2555,-0.2509,-0.2547,-0.2372,-0.2353,-0.2584,-0.2585,-0.2585,-0.2504,0,-0.1895,-0.1982,-0.2038,-0.2126,-0.2173,-0.2244,-0.2308,-0.2379,-0.2433,-0.2487,-0.2522,-0.257,-0.2582,-0.2601,-0.261,-0.259,-0.2582,-0.2603,-0.2518,-0.2515,-0.2345,-0.2347,-0.2587,-0.2502,-0.2502,-0.2501,-0.2501,0,-0.19,-0.1962,-0.2051,-0.216,-0.2187,-0.2249,-0.2346,-0.241,-0.249,-0.2529,-0.2581,-0.2603,-0.2634,-0.2629,-0.2616,-0.263,-0.2598,-0.2574,-0.257,-0.2382,-0.2336,-0.2449,-0.2497,-0.2497,-0.2498,-0.2498,-0.2498,0,-0.184,-0.1965,-0.2037,-0.2078,-0.2206,-0.2262,-0.2331,-0.2424,-0.2471,-0.2553,-0.2577,-0.2623,-0.2636,-0.2623,-0.2585,-0.2606,-0.2536,-0.2551,-0.236,-0.2347,-0.2504,-0.2501,-0.2531,-0.2531,-0.2531,-0.2531,-0.2532,0,-0.1814,-0.1875,-0.2023,-0.206,-0.2138,-0.2242,-0.2322,-0.2391,-0.2479,-0.2507,-0.2592,-0.2594,-0.2638,-0.2607,-0.2576,-0.2438,-0.2525,-0.235,-0.2311,-0.253,-0.2531,-0.2501,-0.2499,-0.2528,-0.2529,-0.253,-0.253,0,-0.1727,-0.1832,-0.1917,-0.2066,-0.2113,-0.2168,-0.2306,-0.2344,-0.245,-0.2483,-0.2507,-0.2569,-0.2514,-0.2514,-0.2465,-0.2393,-0.2301,-0.2234,-0.2441,-0.2419,-0.2122,-0.2124,-0.201,-0.2003,-0.1997,-0.1992,-0.1988,0,-0.1686,-0.1726,-0.1891,-0.1935,-0.2007,-0.211,-0.2164,-0.2305,-0.2335,-0.2434,-0.2415,-0.242,-0.2431,-0.22,-0.2241,-0.2135,-0.2121,-0.207,-0.2125,-0.2093,-0.2068,-0.2079,-0.2089,-0.1979,-0.1977,-0.1976,-0.1974,0,-0.159,-0.1667,-0.1732,-0.1821,-0.1898,-0.1963,-0.2054,-0.2061,-0.2192,-0.2319,-0.2242,-0.2196,-0.212,-0.2063,-0.1984,-0.1928,-0.2103,-0.2009,-0.2022,-0.2074,-0.2054,-0.2037,-0.2054,-0.1954,-0.1957,-0.1959,-0.196,0,-0.1509,-0.1526,-0.1617,-0.1671,-0.1758,-0.1763,-0.1847,-0.1868,-0.1916,-0.2044,-0.2008,-0.2013,-0.2082,-0.1952,-0.1883,-0.18,-0.1789,-0.1754,-0.1781,-0.1804,-0.1775,-0.1722,-0.1467,0,0,0,0,0,-0.1416,-0.141,-0.1452,-0.1482,-0.1554,-0.1591,-0.1734,-0.1822,-0.1963,-0.1848,-0.1923,-0.1841,-0.1741,-0.1756,-0.1621,-0.1791,-0.1796,-0.163,-0.1772,-0.1841,-0.1865,-0.1851,0,0,0,0,0,0,-0.1352,-0.1387,-0.1391,-0.13,-0.1273,-0.1318,-0.1401,-0.1508,-0.1468,-0.1624,-0.1569,-0.1698,-0.1618,-0.1738,-0.1555,-0.1561,-0.1611,-0.166,-0.1655,-0.1828,-0.1849,-0.1868,-0.1862,0,0,0,0,0]},{"header":{"parameterUnit":"m.s-1","parameterCategory":2,"la1":30.2991,"la2":30.254,"lo1":-89.0895,"lo2":-89.0444,"dy":0.0017,"dx":0.0017,"nx":28,"ny":28,"refTime":"2026-01-01T03:00:00:Z","depth":"4","parameterNumber":3,"parameterNumberName":"V-component_of_CURRENTS"},"data":[0,0,0,0,0,0,0,0,0,0,0,0,0,0,0,0,0,0,0,0,0,0,0,0,0,0,0,0,0,0,0,0,0,0,0,0,0,0,0,0,0,0,0,0,0,0,0,0,0,0,0,0,0,0,0,0,0,0,-0.0249,-0.0249,0,-0.0191,-0.019,-0.019,-0.0144,-0.0144,-0.0144,-0.0143,-0.0032,-0.003,-0.0027,0,0,0,0,0,0,0,0,0,0,0,0,0,-0.028,-0.0279,-0.0249,-0.0249,-0.0248,-0.0191,-0.019,-0.0189,-0.0144,-0.0144,-0.0143,-0.0143,-0.0033,-0.003,-0.0027,0,0,0,0,0,0,0,0,0,0,0,0,0,-0.0247,-0.0279,-0.0249,-0.022,-0.0217,-0.0192,-0.019,-0.0189,-0.0144,-0.0144,-0.0143,-0.0143,-0.0034,-0.003,-0.0026,-0.0009,0,0,-0.0014,-0.0012,0,0,0,0,0,0,0,0,-0.0249,-0.0246,-0.0225,-0.0222,-0.0219,-0.0176,-0.0161,-0.0127,-0.0144,-0.017,-0.0143,-0.0143,-0.0077,-0.0069,-0.0057,-0.0004,0.0001,-0.0014,-0.0011,-0.0009,-0.0008,0,0,0,0,0,0,0,-0.0251,-0.0248,-0.0224,-0.0224,-0.0221,-0.0196,-0.0191,-0.0154,-0.0124,-0.0168,-0.0165,-0.0161,-0.0075,-0.0062,-0.0054,0.0002,-0.0014,-0.001,-0.0008,-0.0006,0.0086,0.0086,0,0,0,0,0,0,-0.0265,-0.025,-0.0226,-0.0223,-0.0235,-0.0196,-0.019,-0.0189,-0.0125,-0.0116,-0.0162,-0.0159,-0.0069,-0.0059,-0.005,-0.0025,-0.0009,-0.0006,-0.0003,0.0086,0.0086,0.0086,0,0,0,0,0,0,-0.0266,-0.0263,-0.0229,-0.0236,-0.0231,-0.0197,-0.0194,-0.0188,-0.0176,-0.0122,-0.0111,-0.0157,-0.0068,-0.0056,-0.0021,-0.002,-0.0004,-0.0,0.0086,0.0086,0.0086,0.0025,0,0,0,0,0,0,-0.0267,-0.0264,-0.027,-0.0238,-0.0231,-0.0222,-0.0195,-0.0187,-0.0175,-0.0172,-0.0115,-0.0104,-0.0067,-0.0028,-0.0017,-0.0015,0.0003,0.0086,0.0086,0.0086,0.0027,0.0023,0.0019,0,0,0,0,0,-0.0268,-0.0281,-0.0271,-0.0268,-0.0239,-0.0223,-0.0217,-0.019,-0.0176,-0.0176,-0.0136,-0.0106,-0.002,-0.0025,-0.0012,-0.0008,0.0086,0.0086,0.0086,0.0028,0.0023,0.0019,0,0,0,0,0,0,-0.0298,-0.0277,-0.0265,-0.0271,-0.0252,-0.0216,-0.0216,-0.0196,-0.0165,-0.016,-0.0106,-0.0093,-0.0062,-0.0028,-0.0034,0.0019,0.0039,0.0041,-0.001,-0.0014,-0.0017,-0.0027,0.0006,0,0,0,0,0,-0.0309,-0.0312,-0.0285,-0.029,-0.0284,-0.0251,-0.0241,-0.0223,-0.0191,-0.0177,-0.0137,-0.0092,-0.0052,-0.0029,0.0009,0.0037,0.008,0.0049,0.0045,0.0041,0.0042,0.0106,0.0108,0.0086,0.0086,0.0086,0,0,-0.0322,-0.0311,-0.0313,-0.0297,-0.0279,-0.0277,-0.0244,-0.0235,-0.0228,-0.0169,-0.0148,-0.0106,-0.0048,-0.0018,-0.0,0.0011,0.0068,0.0041,0.0038,0.0041,0.0106,0.0108,0.011,0.0086,0.0086,0.0086,0,0,-0.0352,-0.0341,-0.0353,-0.0342,-0.0324,-0.0301,-0.0302,-0.027,-0.0251,-0.0227,-0.018,-0.0138,-0.0084,-0.0039,-0.0009,-0.0009,0.0043,0.0,-0.0022,0.0039,0.0042,0.0044,0.0091,0.0098,0.0002,0.0001,0.0001,0,-0.0371,-0.038,-0.0354,-0.0362,-0.0358,-0.0317,-0.0327,-0.0301,-0.0261,-0.0243,-0.0229,-0.0137,-0.0091,-0.0039,-0.004,-0.0017,0.002,-0.0012,0.0034,0.0038,0.0041,0.0089,0.0098,-0.0001,-0.0001,-0.0001,-0.0001,0,-0.0405,-0.0414,-0.0421,-0.0416,-0.0407,-0.0411,-0.0375,-0.0359,-0.0331,-0.0297,-0.0247,-0.0181,-0.0126,-0.0103,-0.0071,-0.0022,-0.0004,0.0018,0.0043,0.004,0.009,0.01,-0.0006,-0.0005,-0.0004,-0.0003,0,0,-0.0444,-0.0447,-0.045,-0.0461,-0.0438,-0.0436,-0.0421,-0.0394,-0.0381,-0.0329,-0.0301,-0.0226,-0.0186,-0.0149,-0.0097,-0.0039,0.0016,-0.0006,-0.0002,0.0034,0.0143,0.0111,0.012,0.0045,0.0047,0.0048,0.0163,0,-0.0481,-0.0517,-0.05,-0.0526,-0.0541,-0.0501,-0.0492,-0.0458,-0.0415,-0.0377,-0.0293,-0.0248,-0.0204,-0.0177,-0.0114,-0.0017,0.0042,-0.0018,0.0146,0.015,0.0118,0.013,0.0053,0.0171,0.0174,0.0176,0.0177,0,-0.0519,-0.054,-0.0581,-0.0588,-0.0589,-0.0596,-0.0573,-0.0556,-0.0485,-0.0449,-0.0381,-0.0313,-0.0223,-0.0186,-0.0021,-0.0063,0.0031,0.011,0.0117,0.0117,0.0138,0.018,0.0196,0.0195,0.0193,0.0192,0.0191,0,-0.0567,-0.0593,-0.0631,-0.0636,-0.0635,-0.0644,-0.0636,-0.0584,-0.0567,-0.049,-0.0465,-0.0348,-0.0283,-0.0156,-0.0001,-0.0008,0.0185,0.0198,0.0262,0.0261,0.0282,0.0279,0.0321,0.0321,0.032,0.032,0.032,0,-0.061,-0.0641,-0.0664,-0.0687,-0.073,-0.0702,-0.0721,-0.069,-0.0637,-0.0609,-0.051,-0.0451,-0.027,-0.0139,-0.0008,0.0152,0.0182,0.0261,0.0291,0.0252,0.0244,0.0289,0.0284,0.0324,0.0323,0.0323,0.0322,0,-0.0652,-0.0666,-0.0718,-0.0744,-0.0758,-0.0788,-0.0792,-0.0793,-0.0735,-0.0693,-0.0669,-0.0515,-0.0344,-0.0166,0.0061,0.014,0.0299,0.0354,0.0292,0.0316,0.0335,0.0326,0.0426,0.0426,0.0426,0.0426,0.0426,0,-0.0674,-0.0708,-0.0774,-0.0817,-0.0837,-0.0874,-0.0897,-0.0854,-0.084,-0.0723,-0.07,-0.0528,-0.0411,-0.0119,0.0061,0.0299,0.0333,0.0396,0.037,0.0328,0.0348,0.0338,0.0329,0.0426,0.0426,0.0426,0.0426,0,-0.0718,-0.0748,-0.0792,-0.0888,-0.0938,-0.0981,-0.0999,-0.0989,-0.0913,-0.0863,-0.0704,-0.0537,-0.0342,-0.0115,0.007,0.0241,0.0338,0.0396,0.0397,0.0373,0.0329,0.0346,0.0337,0.0425,0.0425,0.0426,0.0426,0,-0.0748,-0.0796,-0.0867,-0.0944,-0.1021,-0.1063,-0.1062,-0.1014,-0.0977,-0.0826,-0.0768,-0.054,-0.0388,-0.0143,0.003,0.0186,0.0221,0.0249,0.0259,0.0261,0.017,0.0086,0.0138,0,0,0,0,0,-0.077,-0.083,-0.0915,-0.1002,-0.1081,-0.1119,-0.1119,-0.1093,-0.101,-0.0906,-0.0827,-0.0634,-0.0347,-0.0211,-0.0058,-0.0,0.0219,0.0178,0.0249,0.0424,0.0424,0.0341,0,0,0,0,0,0,-0.0787,-0.0872,-0.092,-0.1037,-0.1104,-0.1177,-0.1177,-0.1119,-0.1037,-0.0925,-0.0762,-0.0639,-0.0355,-0.044,-0.007,-0.0019,0.0037,0.0328,0.0331,0.0424,0.0424,0.0424,0.0339,0,0,0,0,0]}]]